When you browse on this site, cookies collect data to enhance your experience and personalize the content and advertising you see.
Visit our Privacy Policy to learn more. By continuing to use the site, you agree to this use of cookies and data.

Stündliche Wetter Lenguazaque

Heute, 7 Juli, Dienstag

Zeit Temperatur Niederschläge Wind Luftdruck Luftfeuchtigkeit
00:00 +10°C° 0 mm 1 m/S 551 mmHg 95%
01:00 +9°C° 0 mm 1 m/S 551 mmHg 95%
02:00 +9°C° 0 mm 1 m/S 551 mmHg 95%
03:00 +9°C° 0 mm 1 m/S 550 mmHg 94%
04:00 +9°C° 0 mm 1 m/S 550 mmHg 94%
05:00 +10°C° 0 mm 1 m/S 551 mmHg 93%
06:00 +11°C° 0 mm 1 m/S 552 mmHg 92%
07:00 +12°C° 0 mm 1 m/S 553 mmHg 91%
08:00 +12°C° 0.1 mm 1 m/S 553 mmHg 90%
09:00 +13°C° 0.1 mm 1 m/S 553 mmHg 89%
10:00 +13°C° 0.1 mm 1 m/S 554 mmHg 88%
11:00 +14°C° 0.3 mm 1 m/S 554 mmHg 84%
12:00 +15°C° 0.3 mm 1 m/S 554 mmHg 81%
13:00 +16°C° 0.3 mm 2 m/S 554 mmHg 78%
14:00 +16°C° 0.5 mm 2 m/S 553 mmHg 81%
15:00 +15°C° 0.5 mm 2 m/S 552 mmHg 83%
16:00 +15°C° 0.5 mm 1 m/S 552 mmHg 86%
17:00 +13°C° 0.2 mm 1 m/S 551 mmHg 90%
18:00 +12°C° 0.2 mm 1 m/S 551 mmHg 93%
19:00 +11°C° 0.2 mm 1 m/S 550 mmHg 97%
20:00 +10°C° 0.1 mm 1 m/S 550 mmHg 97%
21:00 +10°C° 0.1 mm 1 m/S 551 mmHg 97%
22:00 +10°C° 0.1 mm 1 m/S 551 mmHg 97%
23:00 +9°C° 0 mm 1 m/S 551 mmHg 96%

Morgen, 8 Juli, Mittwoch

Zeit Temperatur Niederschläge Wind Luftdruck Luftfeuchtigkeit
00:00 +9°C° 0 mm 1 m/S 551 mmHg 96%
01:00 +9°C° 0 mm 1 m/S 550 mmHg 96%
02:00 +9°C° 0 mm 1 m/S 550 mmHg 96%
03:00 +9°C° 0 mm 1 m/S 550 mmHg 96%
04:00 +9°C° 0 mm 1 m/S 550 mmHg 96%
05:00 +10°C° 0 mm 1 m/S 550 mmHg 95%
06:00 +10°C° 0 mm 1 m/S 551 mmHg 94%
07:00 +11°C° 0 mm 1 m/S 552 mmHg 93%
08:00 +13°C° 0.1 mm 1 m/S 553 mmHg 86%
09:00 +15°C° 0.1 mm 2 m/S 554 mmHg 79%
10:00 +16°C° 0.1 mm 2 m/S 555 mmHg 72%
11:00 +16°C° 0.3 mm 3 m/S 554 mmHg 72%
12:00 +17°C° 0.3 mm 3 m/S 554 mmHg 72%
13:00 +17°C° 0.3 mm 3 m/S 554 mmHg 72%
14:00 +17°C° 0.2 mm 3 m/S 553 mmHg 71%
15:00 +17°C° 0.2 mm 2 m/S 553 mmHg 70%
16:00 +17°C° 0.2 mm 2 m/S 552 mmHg 68%
17:00 +15°C° 0.2 mm 2 m/S 552 mmHg 77%
18:00 +13°C° 0.2 mm 1 m/S 551 mmHg 86%
19:00 +11°C° 0.2 mm 1 m/S 550 mmHg 94%
20:00 +11°C° 0.1 mm 1 m/S 550 mmHg 95%
21:00 +10°C° 0.1 mm 1 m/S 550 mmHg 96%
22:00 +10°C° 0.1 mm 1 m/S 551 mmHg 97%
23:00 +9°C° 0 mm 1 m/S 550 mmHg 97%

übermorgen, 9 Juli, Donnerstag

Zeit Temperatur Niederschläge Wind Luftdruck Luftfeuchtigkeit
00:00 +9°C° 0 mm 1 m/S 550 mmHg 97%
01:00 +9°C° 0 mm 1 m/S 550 mmHg 96%
02:00 +9°C° 0 mm 1 m/S 550 mmHg 96%
03:00 +9°C° 0 mm 1 m/S 550 mmHg 95%
04:00 +9°C° 0 mm 1 m/S 550 mmHg 95%
05:00 +10°C° 0 mm 1 m/S 551 mmHg 94%
06:00 +10°C° 0 mm 1 m/S 551 mmHg 92%
07:00 +11°C° 0 mm 1 m/S 552 mmHg 91%
08:00 +13°C° 0 mm 1 m/S 553 mmHg 81%
09:00 +15°C° 0 mm 2 m/S 554 mmHg 71%
10:00 +17°C° 0 mm 2 m/S 555 mmHg 61%
11:00 +18°C° 0.1 mm 2 m/S 555 mmHg 58%
12:00 +19°C° 0.1 mm 2 m/S 555 mmHg 56%
13:00 +19°C° 0.1 mm 3 m/S 555 mmHg 54%
14:00 +19°C° 0.3 mm 2 m/S 554 mmHg 60%
15:00 +18°C° 0.3 mm 2 m/S 553 mmHg 67%
16:00 +17°C° 0.3 mm 2 m/S 552 mmHg 74%
17:00 +15°C° 0.5 mm 2 m/S 552 mmHg 81%
18:00 +14°C° 0.5 mm 1 m/S 551 mmHg 88%
19:00 +12°C° 0.5 mm 1 m/S 551 mmHg 96%
20:00 +11°C° 0.2 mm 1 m/S 551 mmHg 96%
21:00 +11°C° 0.2 mm 1 m/S 551 mmHg 96%
22:00 +11°C° 0.2 mm 1 m/S 552 mmHg 97%
23:00 +11°C° 0 mm 1 m/S 551 mmHg 96%

10 Juli, Freitag

Zeit Temperatur Niederschläge Wind Luftdruck Luftfeuchtigkeit
00:00 +11°C° 0 mm 1 m/S 551 mmHg 96%
01:00 +10°C° 0 mm 1 m/S 551 mmHg 95%
02:00 +10°C° 0 mm 1 m/S 551 mmHg 95%
03:00 +10°C° 0 mm 1 m/S 551 mmHg 95%
04:00 +9°C° 0 mm 1 m/S 550 mmHg 94%
05:00 +10°C° 0 mm 1 m/S 551 mmHg 93%
06:00 +10°C° 0 mm 1 m/S 552 mmHg 92%
07:00 +11°C° 0 mm 1 m/S 552 mmHg 91%
08:00 +13°C° 0 mm 1 m/S 553 mmHg 81%
09:00 +15°C° 0 mm 1 m/S 555 mmHg 71%
10:00 +17°C° 0 mm 2 m/S 556 mmHg 60%
11:00 +18°C° 0.1 mm 2 m/S 555 mmHg 60%
12:00 +18°C° 0.1 mm 2 m/S 555 mmHg 60%
13:00 +19°C° 0.1 mm 3 m/S 555 mmHg 60%
14:00 +18°C° 0.4 mm 3 m/S 554 mmHg 65%
15:00 +17°C° 0.4 mm 3 m/S 553 mmHg 70%
16:00 +16°C° 0.4 mm 3 m/S 553 mmHg 75%
17:00 +15°C° 0.3 mm 2 m/S 552 mmHg 81%
18:00 +14°C° 0.3 mm 2 m/S 552 mmHg 88%
19:00 +12°C° 0.3 mm 1 m/S 552 mmHg 94%
20:00 +12°C° 0.2 mm 1 m/S 552 mmHg 94%
21:00 +12°C° 0.2 mm 1 m/S 552 mmHg 95%
22:00 +11°C° 0.2 mm 1 m/S 552 mmHg 95%
23:00 +11°C° 0.7 mm 1 m/S 552 mmHg 96%

11 Juli, Samstag

Zeit Temperatur Niederschläge Wind Luftdruck Luftfeuchtigkeit
00:00 +11°C° 0.7 mm 1 m/S 552 mmHg 97%
01:00 +11°C° 0.7 mm 1 m/S 552 mmHg 97%
02:00 +11°C° 0 mm 1 m/S 551 mmHg 97%
03:00 +11°C° 0 mm 1 m/S 551 mmHg 97%
04:00 +11°C° 0 mm 1 m/S 551 mmHg 97%
05:00 +11°C° 0 mm 1 m/S 551 mmHg 96%
06:00 +11°C° 0 mm 1 m/S 551 mmHg 96%
07:00 +11°C° 0 mm 1 m/S 552 mmHg 95%
08:00 +12°C° 0.1 mm 1 m/S 552 mmHg 92%
09:00 +13°C° 0.1 mm 1 m/S 553 mmHg 88%
10:00 +14°C° 0.1 mm 2 m/S 553 mmHg 85%
11:00 +14°C° 0.1 mm 2 m/S 553 mmHg 82%
12:00 +15°C° 0.1 mm 2 m/S 553 mmHg 79%
13:00 +16°C° 0.1 mm 2 m/S 553 mmHg 75%
14:00 +16°C° 0.2 mm 2 m/S 553 mmHg 75%
15:00 +16°C° 0.2 mm 2 m/S 553 mmHg 75%
16:00 +16°C° 0.2 mm 2 m/S 552 mmHg 75%
17:00 +15°C° 0.2 mm 2 m/S 552 mmHg 82%
18:00 +13°C° 0.2 mm 2 m/S 551 mmHg 89%
19:00 +11°C° 0.2 mm 1 m/S 551 mmHg 96%
20:00 +11°C° 0.1 mm 1 m/S 551 mmHg 95%
21:00 +11°C° 0.1 mm 1 m/S 552 mmHg 95%
22:00 +11°C° 0.1 mm 1 m/S 552 mmHg 95%
23:00 +11°C° 0 mm 1 m/S 552 mmHg 95%

12 Juli, Sonntag

Zeit Temperatur Niederschläge Wind Luftdruck Luftfeuchtigkeit
00:00 +10°C° 0 mm 1 m/S 551 mmHg 96%
01:00 +10°C° 0 mm 1 m/S 551 mmHg 96%
02:00 +10°C° 0 mm 1 m/S 551 mmHg 96%
03:00 +10°C° 0 mm 1 m/S 551 mmHg 95%
04:00 +11°C° 0 mm 1 m/S 551 mmHg 95%
05:00 +11°C° 0 mm 1 m/S 551 mmHg 94%
06:00 +11°C° 0 mm 1 m/S 552 mmHg 94%
07:00 +11°C° 0 mm 1 m/S 552 mmHg 93%
08:00 +13°C° 0.1 mm 1 m/S 553 mmHg 87%
09:00 +14°C° 0.1 mm 1 m/S 554 mmHg 81%
10:00 +15°C° 0.1 mm 2 m/S 554 mmHg 75%
11:00 +16°C° 0.3 mm 2 m/S 554 mmHg 76%
12:00 +16°C° 0.3 mm 2 m/S 554 mmHg 77%
13:00 +16°C° 0.3 mm 3 m/S 554 mmHg 77%
14:00 +16°C° 0.2 mm 3 m/S 553 mmHg 77%
15:00 +16°C° 0.2 mm 2 m/S 553 mmHg 77%
16:00 +16°C° 0.2 mm 2 m/S 552 mmHg 77%
17:00 +14°C° 0.1 mm 2 m/S 552 mmHg 83%
18:00 +13°C° 0.1 mm 1 m/S 552 mmHg 89%
19:00 +12°C° 0.1 mm 1 m/S 551 mmHg 94%
20:00 +12°C° 0.1 mm 1 m/S 552 mmHg 95%
21:00 +11°C° 0.1 mm 1 m/S 552 mmHg 96%
22:00 +11°C° 0.1 mm 1 m/S 552 mmHg 96%
23:00 +11°C° 0.1 mm 1 m/S 552 mmHg 97%
Mehr zeigen